OPS 4682 DEB, 38365

Orbit data source: Space-Track

OPS 4682 DEB, 38365 is space debris in LEO originally from a launch on Sat, 03 Apr 1965 UTC launched from the Air Force Western Test Range (AFWTR). Debris objects in space refer to the collection of defunct objects orbiting the Earth. Examples of debris include non-operational satellites, rocket bodies, and fragments generated from explosions, collisions, or faulty payload assembly.

Loading next visibility...
Identifier
38365, 1965-027BS
Orbit
LEO
Country
Flag of USUS
Related business
Manufacturer
Unknown
Mission
Spacecraft
Bus & Motor
Unknown
Mass
Unknown
Launch date (UTC)
1965-04-03 (61 years ago)
Launch vehicle
Unknown
Launch site
Air Force Western Test Range (AFWTR)
Object type
Payload
Rocket body
Debris
Shape & HBR
Unknown shape, 0.1 m
Radar Cross Section
Small (<0.1 m²)

Expand to show TLE details & history
Last TLE update: 2 weeks ago

TLE from 2 weeks ago
0 OPS 4682 DEB
1 38365U 65027BS  25330.31673077 -.00000002  00000-0 -33812-4 0  9997
2 38365  90.2377 351.5561 0027480 162.5385 197.6688 12.99016407605973
Epoch: 2025-11-26T07:36Z
TLE epoch observation values (Epoch: 2025-11-26T07:36:05.538Z)
Latitude
Longitude
172.04329°
Altitude
1,288.849 km
Speed
7.202 km/s
True Right ascension
23h 26m 13s
True Declination
0° 00' 00"
Sunlit
Object was in daylight at epoch
Visualization orbit readout
Latitude
Unknown
Longitude
Unknown
Altitude
Unknown
Speed
Unknown
Apparent Right ascension
Unknown
Apparent Declination
Unknown
Sunlit
N/A
Visualization observer readout
Local Sidereal Time
03:31:04
Azimuth
Unknown
Elevation
Unknown
Doppler factor
Unknown
Orbital elements
Apogee altitude
1,284.069 km
Perigee altitude
1,242.073 km
Semi-major axis
7,641.208 km
Eccentricity
0.00275
Inclination
90.2377°
RAAN
351.5561°
Arg. of periapsis
162.5385°
True anomaly
197.57354°
Mean anomaly
197.6688°
Eccentric anomaly
197.62114°
Mean motion
3.24938 °/min
Orbital period
110.79 mins
BSTAR
-0.000033812
Loading maneuver chart data...
Computing Atmospheric mass density...
Loading historical data...
Loading historical data...
Loading historical data...
Loading historical data...
Loading historical data...
Loading historical data...
Loading historical data...

Documentation

Showing up to 5 results
|